Location: Sky Meadows State Park
(38.9917°N, 77.9667°W)
Time: 16:17:37
(UTC-04:00)

Envisat - Visible Passes

Search period start: 26 May 2019 00:00
Search period end: 05 June 2019 00:00
Orbit: 764 x 766 km, 98.2° (Epoch: 26 May)

Date Brightness Start Highest point End Pass type
(mag) Time Alt. Az. Time Alt. Az. Time Alt. Az.
26 May 5.9 21:08:49 10° WSW 21:11:04 13° W 21:13:20 10° WNW visible
29 May 5.7 20:56:31 10° SW 20:59:43 17° W 21:02:57 10° NW visible
03 Jun 6.0 21:12:30 10° WSW 21:14:11 12° W 21:15:53 10° WNW visible
